Find Starlink 31030

NORAD ID: 58542 Int'l Des: 2023-192 Owner: SPXS Country: US Constellation: starlink operational
LEOCIRCULAR

实时位置

正在加载3D地球...

关于 Starlink 31030

正在加载描述...

即将过境

Passes for default location (London). Set your location on the main map for personalized predictions.

高度历史

Loading altitude history...

两行轨道根数

1 58542U 23192M 26126.33504135 .00000502 00000-0 25995-4 0 9993
2 58542 53.1616 154.8031 0001485 98.9244 261.1927 15.34384100134818
Epoch: May 6, 2026 • Age: 17 hours

当前状态

高度 463.1 km
速度 7.64 km/s
星下点 6.23°N, 87.85°W
发射日期 Dec 8, 2023
运行时间 2.4 years
类型 internet

技术详情

分类 Payload
质量 730.00 kg
干质量 700.00 kg
总质量 730.00 kg
长度 0.30 m
直径 4.10 m
跨度 29.00 m
形状 Box + pan
制造商 SPXS
平台类型 Starlink V2M
阶段状态 In Orbit
所有者/国家 SPXS/US

Most Searched